Regional Weather Roundup
Issued by NWS Charleston, SC

Current Version | Previous Version | Text Only | Print | Product List | Glossary Off
Versions: 1 2 3 4 5 6 7 8 9 10 11 12 13 14 15 16 17 18 19 20 21 22 23 24 25 26 27 28 29 30 31 32 33 34 35 36 37 38 39 40 41 42 43 44 45 46 47 48 49 50

000
ASUS42 KCHS 102327
RWRCHS

REGIONAL WEATHER ROUNDUP
NATIONAL WEATHER SERVICE CHARLESTON SC
600 PM EST SAT DEC 10 2016

NOTE: "FAIR" INDICATES FEW OR NO CLOUDS BELOW 12,000 FEET WITH NO
SIGNIFICANT WEATHER AND/OR OBSTRUCTIONS TO VISIBILITY.

NOT ALL STATIONS ARE QUALITY CONTROLLED. USE DATA WITH CAUTION...
ESPECIALLY DEWPOINT OBSERVATIONS.

SCZ027-030-031-034>040-042>050-110000-
...SOUTHEAST SOUTH CAROLINA...

CITY           SKY/WX    TMP DP  RH WIND       PRES   REMARKS
N CHARLESTON   CLEAR     45  24  43 NE5       30.48R
WATERFRONT PRK   N/A     48  28  46 NE7       30.47S
MOUNT PLEASANT FAIR      39  32  75 CALM      30.49R
JOHNS ISLAND   FAIR      39  30  70 CALM      30.48R
PINOPOLIS        N/A     46  25  42 VRB2      30.41R
MONCKS CORNER  FAIR      36  27  69 CALM      30.49S
SUMMERVILLE    FAIR      37  30  75 CALM      30.50R
BEAUFORT MCAS  CLEAR     47  23  38 NE5       30.47S
BEAUFORT ARPT  FAIR      43  32  65 E5        30.46F
HILTON HEAD IS CLEAR     46  28  49 NE5       30.47S
WALTERBORO     CLEAR     43  27  52 NE3       30.49S
ALLENDALE      FAIR      41  28  60 CALM      30.46S

...SOUTHERN MIDLANDS AND PEE DEE...

CITY           SKY/WX    TMP DP  RH WIND       PRES   REMARKS
GEORGETOWN     NOT AVBL
KINGSTREE      FAIR      34  27  75 CALM      30.50R
ORANGEBURG     CLEAR     38  25  59 CALM      30.48R
BARNWELL       NOT AVBL
AIKEN          FAIR      36  25  64 CALM      30.50R
MANNING        FAIR      34  25  69 CALM      30.50R
COLUMBIA       CLEAR     41  21  44 CALM      30.47R
SUMTER         CLEAR     37  21  52 CALM      30.47R
FLORENCE       CLEAR     38  21  50 CALM      30.50R
MYRTLE BEACH   NOT AVBL
N MYRTLE BEACH CLEAR     35  27  72 N3        30.49R

$$

GAZ063-065-086>088-099>101-113>116-118-119-134>141-150-110000-
...SOUTHEAST GEORGIA...

CITY           SKY/WX    TMP DP  RH WIND       PRES   REMARKS
SAVANNAH ARPT  CLEAR     46  22  38 E6        30.46S
HUNTER AAF     CLEAR     46  28  49 NE3       30.43F
FORT STEWART   CLEAR     41  32  70 CALM      30.42F
STATESBORO     CLEAR     38  32  78 CALM      30.46S
SYLVANIA       CLEAR    N/A N/A N/A E3        30.47S
CLAXTON        FAIR      40  33  76 CALM      30.45S

...CSRA...CENTRAL AND FAR SOUTHEAST GEORGIA...

CITY           SKY/WX    TMP DP  RH WIND       PRES   REMARKS
THOMSON        CLEAR     39  31  72 CALM      30.50S
AUGUSTA-BUSH   CLEAR     40  27  59 CALM      30.46S
AUGUSTA-DANIEL CLEAR     45  20  36 CALM      30.46S
SWAINSBORO     FAIR      41  30  65 E3        30.46S
VIDALIA        CLEAR     43  32  65 NE3       30.45R
EASTMAN        FAIR      45  11  25 E3        30.46S
HAZLEHURST     FAIR      45  27  49 CALM      30.42S
ALMA           CLEAR     43  28  55 CALM      30.42S
WAYCROSS       CLEAR     49  33  55 CALM      30.42R
JESUP          FAIR      46  39  76 SE5       30.43S
BAXLEY         FAIR      45  32  61 CALM      30.42S
BRUNSWICK      CLEAR     48  43  81 NE6       30.44S
SAINT SIMONS   CLEAR     51  42  71 NE13      30.43S

$$

SCZ027-028-034-036>038-045-046-048>050-GAZ119-141-110000-
...LAKE AND SUPPLEMENTAL COASTAL OBSERVATIONS...

STATION/POSITION TIME  TEMP    WIND        PRES    WAVE   SWELL
                       AIR SEA DIR/SP/G            HT/PER HT/PER/DIR
                 (UTC) (F)     (DEG/KT/KT) (MB)    (FT/S) (FT/S/D)
WINYAH BAY       2245   40     330/  2     1032.0S
LAKE MURRAY      2250   44      CALM  /  4 1031.2R
ACE BASIN NERRS  2245   43        CALM     1031.0S
FORT PULASKI     2300   50 59   60/  8/ 11 1031.4
SAPELO ISLAND    2300   48      40/  8     1031.0

$$

ANZ835-935-AMZ111-154-330-350-352-354-370-450-454-472-110000-
...C-MAN AND BUOY OBSERVATIONS...

STATION/POSITION TIME  TEMP    WIND        PRES    WAVE   SWELL
                       AIR SEA DIR/SP/G            HT/PER HT/PER/DIR
                 (UTC) (F)     (DEG/KT/KT) (MB)    (FT/S) (FT/S/D)
BUOY 41004       2250   51 73   30/ 10/ 16 1031.4R   3/ 5   2/ 50/ 5
BUOY 41008       2250   54 62   50/ 17/ 21 1030.1R   4/ 6   2/ 70/ 8
FOLLY BEACH CMAN 2300   49      40/  9/ 10 1032.4R
CAPERS NEARSHORE 2208   48 60   40/  8/ 12 1031.7S
FRIPP NEARSHORE  2308   50 60   50/ 10/ 16 1031.3R


STATION/POSITION TIME  TEMP    WIND        PRES    WAVE   SWELL
                       AIR SEA DIR/SP/G            HT/PER HT/PER/DIR
                 (UTC) (F)     (DEG/KT/KT) (MB)    (FT/S) (FT/S/D)
5E ST. MARYS GA  2300      64                N/A     5/ 5
FRYING PAN BUOY  2310   47 72  360/ 10/ 14 1032.3
BUOY 41025       2250   43 77  320/ 10/ 16 1032.1R   4/ 9   3/ 60/ 9
CAPE LOOKOUT NC  2300   41     360/  7/  8 1031.8R
BUOY 41002       2250   61 73   10/ 12/ 16 1029.2R   4/ 8   3/ 30/ 8
BUOY 41010       NOT AVBL
ST AUGUSTINE FL  2300   60 63  360/ 21/ 23 1029.3F


$$



USA.gov is the U.S. government's official web portal to all federal, state and local government web resources and services.